EW1970 Weather Reports


Display with metric or nautical units.
time (UTC)temp
F
wind
direction
speed
MPH
gust
MPH
rain 1hr
in
rain 24hr
in
rain mn
in
humidity
%
barometer
mb
20260901101504 78 236 0.0 4.0 0.00 0.00 0.00 85 1016.7
20260901100010 78 229 0.0 4.0 0.00 0.00 0.00 84 1016.7
20260901094508 78 248 1.0 3.0 0.00 0.00 0.00 84 1016.8
20260901093004 78 271 0.0 3.0 0.00 0.00 0.00 83 1016.8
20260901091504 77 186 0.0 2.0 0.00 0.00 0.00 1017.0
20260901090010 77 244 0.0 1.0 0.00 0.00 0.00 82 1016.9
20260901084508 78 244 0.0 2.0 0.00 0.00 0.00 81 1016.8
20260901083026 78 244 0.0 1.0 0.00 0.00 0.00 80 1016.7
20260901081503 78 113 0.0 0.0 0.00 0.00 0.00 79 1016.8
20260901080005 79 112 0.0 2.0 0.00 0.00 0.00 78 1016.8
20260901074518 79 125 0.0 0.0 0.00 0.00 0.00 77 1016.9
20260901073027 80 125 0.0 3.0 0.00 0.00 0.00 75 1016.9
20260901071515 80 127 0.0 2.0 0.00 0.00 0.00 75 1017.0
20260901070009 81 203 0.0 2.0 0.00 0.00 0.00 74 1016.9
20260901064508 81 129 0.0 4.0 0.00 0.00 0.00 73 1016.7
20260901063016 82 254 0.0 2.0 0.00 0.00 0.00 72 1016.7
20260901061521 82 240 0.0 4.0 0.00 0.00 0.00 72 1016.6
20260901060019 82 242 0.0 4.0 0.00 0.00 0.00 70 1016.5
20260901054506 83 165 0.0 3.0 0.00 0.00 0.00 69 1016.5
20260901053013 83 76 0.0 3.0 0.00 0.00 0.00 67 1016.3
20260901051518 83 288 1.0 3.0 0.00 0.00 0.00 66 1016.2
20260901050024 84 254 0.0 4.0 0.00 0.00 0.00 65 1016.1
20260901044526 84 104 0.0 7.0 0.00 0.00 0.00 64 1016.0
20260901043010 85 165 0.0 8.0 0.00 0.00 0.00 63 1016.0
20260901041514 85 179 1.0 4.0 0.00 0.00 0.00 62 1015.9
20260901040028 85 215 0.0 4.0 0.00 0.00 0.00 60 1016.0
20260901034533 86 106 1.0 7.0 0.00 0.00 0.00 59 1015.9
20260901033027 86 163 1.0 7.0 0.00 0.00 0.00 58 1015.8
20260901031529 86 88 1.0 8.0 0.00 0.00 0.00 56 1015.7
20260901030023 86 145 1.0 8.0 0.00 0.00 0.00 54 1015.5
20260901024509 85 117 0.0 8.0 0.00 0.00 0.00 52 1015.1
20260901023007 85 142 0.0 2.0 0.00 0.00 0.00 50 1014.9
20260901021510 85 77 0.0 2.0 0.00 0.00 0.00 50 1014.8
20260901020018 85 167 0.0 2.0 0.00 0.00 0.00 51 1014.4
20260901014503 86 132 0.0 2.0 0.00 0.00 0.00 50 1014.3
20260901013005 86 132 0.0 2.0 0.00 0.00 0.00 48 1014.2
20260901011507 87 40 0.0 2.0 0.00 0.00 0.00 47 1014.1
20260901010029 88 94 0.0 2.0 0.00 0.00 0.00 46 1014.0
20260901004526 90 140 0.0 3.0 0.00 0.00 0.00 44 1014.1
20260901003003 91 134 0.0 4.0 0.00 0.00 0.00 42 1014.1
20260901001513 92 153 0.0 2.0 0.00 0.00 0.00 42 1013.9
20260901000015 93 37 1.0 5.0 0.00 0.00 0.00 41 1013.9
20260831234517 94 139 0.0 3.0 0.00 0.00 0.00 40 1013.9
20260831233027 95 20 0.0 4.0 0.00 0.00 0.00 39 1014.0
20260831231504 97 55 0.0 4.0 0.00 0.00 0.00 36 1014.0
20260831230012 97 36 0.0 4.0 0.00 0.00 0.00 37 1014.0
20260831224514 97 108 1.0 4.0 0.00 0.00 0.00 35 1014.0
20260831223024 98 51 1.0 6.0 0.00 0.00 0.00 35 1014.2
20260831221534 97 146 1.0 4.0 0.00 0.00 0.00 35 1014.3
20260831220007 96 126 2.0 8.0 0.00 0.00 0.00 38 1014.3
20260831214510 99 103 1.0 3.0 0.00 0.00 0.00 37 1014.6
20260831213017 99 75 2.0 6.0 0.00 0.00 0.00 38 1014.7
20260831211523 100 178 1.0 5.0 0.00 0.00 0.00 37 1015.0
20260831210027 99 42 1.0 3.0 0.00 0.00 0.00 39 1015.2
20260831204509 97 274 0.0 5.0 0.00 0.00 0.00 39 1015.5
20260831203014 96 57 0.0 3.0 0.00 0.00 0.00 44 1015.8
20260831201525 94 114 0.0 6.0 0.00 0.00 0.00 44 1016.0
20260831200033 96 66 0.0 4.0 0.00 0.00 0.00 43 1016.2
20260831194603 97 93 1.0 7.0 0.00 0.00 0.00 42 1016.4
20260831193010 99 123 1.0 7.0 0.00 0.00 0.00 41 1016.4
20260831191502 97 178 1.0 4.0 0.00 0.00 0.00 42 1016.7
20260831190003 98 142 1.0 10.0 0.00 0.00 0.00 42 1017.0
20260831184503 97 94 0.0 5.0 0.00 0.00 0.00 42 1017.2
20260831183008 95 30 1.0 7.0 0.00 0.00 0.00 44 1017.2
20260831181521 97 258 2.0 4.0 0.00 0.00 0.00 46 1017.3
20260831180003 96 50 0.0 3.0 0.00 0.00 0.00 48 1017.5
20260831174504 94 254 1.0 7.0 0.00 0.00 0.00 52 1017.9
20260831173007 95 98 0.0 6.0 0.00 0.00 0.00 51 1017.9
20260831171522 92 246 0.0 5.0 0.00 0.00 0.00 53 1018.1
20260831170045 93 140 1.0 4.0 0.00 0.00 0.00 56 1018.3
20260831164503 92 250 0.0 5.0 0.00 0.00 0.00 58 1018.3
20260831163005 90 144 1.0 5.0 0.00 0.00 0.00 60 1018.1
20260831161509 88 211 1.0 4.0 0.00 0.00 0.00 62 1018.2
20260831160029 89 179 1.0 7.0 0.00 0.00 0.00 63 1018.2
20260831154558 87 194 0.0 5.0 0.00 0.00 0.00 67 1018.3
20260831153007 86 255 1.0 4.0 0.00 0.00 0.00 70 1018.2
20260831151510 85 254 1.0 7.0 0.00 0.00 0.00 72 1018.1
20260831150014 84 242 1.0 7.0 0.00 0.00 0.00 75 1018.1
20260831144526 82 178 2.0 4.0 0.00 0.00 0.00 78 1017.8
20260831143027 81 266 0.0 7.0 0.00 0.00 0.00 80 1017.8
20260831141532 81 34 0.0 6.0 0.00 0.00 0.00 81 1017.8
20260831140017 81 182 1.0 5.0 0.00 0.00 0.00 83 1017.5
20260831134518 80 256 0.0 2.0 0.00 0.00 0.00 86 1017.4
20260831133035 79 239 1.0 8.0 0.00 0.00 0.00 88 1017.3
20260831131530 78 173 0.0 2.0 0.00 0.00 0.00 89 1017.1
20260831130009 77 272 0.0 2.0 0.00 0.00 0.00 89 1017.1
20260831124518 77 297 0.0 2.0 0.00 0.00 0.00 89 1016.8
20260831123024 77 52 0.0 2.0 0.00 0.00 0.00 88 1016.8
20260831121529 77 155 0.0 3.0 0.00 0.00 0.00 88 1016.7
20260831120032 78 223 0.0 3.0 0.00 0.00 0.00 87 1016.7
20260831114515 78 132 0.0 6.0 0.00 0.00 0.00 87 1016.7
20260831113024 78 175 0.0 2.0 0.00 0.00 0.00 87 1016.6
20260831111531 78 211 0.0 2.0 0.00 0.00 0.00 87 1016.5
20260831110031 78 253 0.0 5.0 0.00 0.00 0.00 86 1016.4
20260831104539 78 214 1.0 7.0 0.00 0.00 0.00 86 1016.4
20260831103037 78 221 0.0 3.0 0.00 0.00 0.00 86 1016.5